Weather History for Grand Rapids, MI

Change the Weather History Date:

Wednesday, December 11, 2013

  Actual Average Record
Temperature  
Mean Temperature 17 °F 30 °F  
Max Temperature 21 °F 36 °F 63 °F (1949)
Min Temperature 12 °F 25 °F -3 °F (1962)
Degree Days  
Heating Degree Days 48 35  
Month to date heating degree days 395 362  
Since 1 July heating degree days 1717 1700  
Cooling Degree Days 0 0  
Month to date cooling degree days 0 0  
Year to date cooling degree days 767 699  
Moisture  
Dew Point 11 °F    
Average Humidity 76    
Maximum Humidity 84    
Minimum Humidity 67    
Precipitation  
Precipitation 0.10 in 0.09 in 1.12 in (1899)
Month to date precipitation 1.07 0.98  
Year to date precipitation 43.85 36.75  
Snow  
Snow 2.00 in 0.70 in 14.20 in (2000)
Month to date snowfall 9.3 6.4  
Since 1 July snowfall 11.5 13.7  
Snow Depth 6.00 in    
Sea Level Pressure  
Sea Level Pressure 30.30 in    
Wind  
Wind Speed 10 mph (WNW)    
Max Wind Speed 20 mph    
Max Gust Speed 25 mph    
Visibility 4 miles    
Events Fog , Snow    
T = Trace of Precipitation, MM = Missing Value Source: NWS Daily Summary

Daily Weather History Graph

Daily Weather History Graph

Search for Another Location

Airport:

Trip Planner

Search our weather history database for the weather conditions in past years. The results will help you decide how hot, cold, wet, or windy it might be!

Date:

Astronomy

Dec. 11, 2013 Rise Set
Actual Time 8:03 AM EST 5:07 PM EST
Civil Twilight 7:30 AM EST 5:40 PM EST
Nautical Twilight 6:55 AM EST 6:15 PM EST
Astronomical Twilight 6:20 AM EST 6:50 PM EST
Moon 1:47 PM EST (12/11) 2:16 AM EST (12/11)
Length of Visible Light 10h 09m
Length of Day
9h 04m
Waxing Gibbous, 71% of the Moon is Illuminated
Dec 11
Waxing Gibbous
Dec 17
Full
Dec 25
Last Quarter
Jan 1
New
Jan 7
First Quarter

Hourly Weather History & Observations

Time (EST) Temp. Windchill Dew Point Humidity Pressure Visibility Wind Dir Wind Speed Gust Speed Precip Events Conditions
12:53 AM 21.0 °F 7.6 °F 12.9 °F 71% 30.22 in 5.0 mi West 15.0 mph - 0.00 in Snow Light Snow
1:03 AM 19.4 °F 6.6 °F 12.2 °F 74% 30.18 in 5.0 mi West 12.7 mph - 0.00 in Snow Light Snow
1:10 AM 19.4 °F 6.0 °F 12.2 °F 74% 30.17 in 6.0 mi WSW 13.8 mph - 0.00 in Snow Light Snow
1:19 AM 19.4 °F 6.6 °F 12.2 °F 74% 30.18 in 6.0 mi WSW 12.7 mph - 0.00 in Snow Light Snow
1:27 AM 19.4 °F 6.6 °F 12.2 °F 74% 30.18 in 8.0 mi WSW 12.7 mph - 0.00 in Snow Light Snow
1:53 AM 19.9 °F 6.7 °F 12.9 °F 74% 30.22 in 4.0 mi WSW 13.8 mph - 0.00 in Snow Light Snow
2:35 AM 19.4 °F 6.0 °F 15.8 °F 86% 30.19 in 4.0 mi WSW 13.8 mph - 0.00 in Snow Light Snow
2:53 AM 21.0 °F 9.3 °F 14.0 °F 74% 30.23 in 4.0 mi WSW 11.5 mph - 0.00 in Snow Light Snow
3:53 AM 21.0 °F 8.6 °F 15.1 °F 78% 30.25 in 2.0 mi West 12.7 mph - 0.00 in Snow Light Snow
4:09 AM 19.4 °F 6.6 °F 15.8 °F 86% 30.21 in 2.5 mi West 12.7 mph - 0.00 in Snow Light Snow
4:22 AM 19.4 °F 6.6 °F 15.8 °F 86% 30.21 in 1.8 mi West 12.7 mph - 0.00 in Snow Light Snow
4:53 AM 19.9 °F 10.1 °F 16.0 °F 85% 30.25 in 1.2 mi West 8.1 mph - 0.00 in Snow Light Snow
5:18 AM 19.4 °F 7.9 °F 15.8 °F 86% 30.20 in 2.0 mi West 10.4 mph - 0.01 in Snow Light Snow
5:34 AM 19.4 °F 8.6 °F 15.8 °F 86% 30.20 in 2.5 mi West 9.2 mph - 0.01 in Snow Light Snow
5:41 AM 19.4 °F 9.5 °F 15.8 °F 86% 30.20 in 3.0 mi West 8.1 mph - 0.01 in Snow Light Snow
5:53 AM 19.9 °F 9.3 °F 15.1 °F 81% 30.24 in 3.0 mi West 9.2 mph - 0.01 in Snow Light Snow
6:01 AM 19.4 °F 10.4 °F 15.8 °F 86% 30.20 in 2.0 mi West 6.9 mph - 0.00 in Snow Light Snow
6:48 AM 19.4 °F 10.4 °F 15.8 °F 86% 30.21 in 2.5 mi WSW 6.9 mph - 0.01 in Snow Light Snow
6:53 AM 19.9 °F 10.1 °F 15.1 °F 81% 30.25 in 2.5 mi WSW 8.1 mph - 0.01 in Snow Light Snow
7:08 AM 19.4 °F 10.4 °F 15.8 °F 86% 30.22 in 1.8 mi West 6.9 mph - 0.00 in Snow Light Snow
7:38 AM 19.4 °F 10.4 °F 15.8 °F 86% 30.23 in 1.2 mi WSW 6.9 mph - 0.01 in Snow Light Snow
7:53 AM 19.9 °F 11.1 °F 16.0 °F 85% 30.28 in 1.0 mi WSW 6.9 mph - 0.02 in Snow Light Snow
8:18 AM 19.4 °F 11.5 °F 15.8 °F 86% 30.24 in 0.5 mi West 5.8 mph - 0.01 in Fog , Snow Snow
8:30 AM 19.4 °F 11.5 °F 15.8 °F 86% 30.25 in 0.2 mi West 5.8 mph - 0.01 in Fog , Snow Snow
8:41 AM 19.4 °F 11.5 °F 17.6 °F 93% 30.25 in 0.5 mi West 5.8 mph - 0.02 in Fog , Snow Snow
8:53 AM 19.9 °F 11.1 °F 16.0 °F 85% 30.30 in 0.5 mi WNW 6.9 mph - 0.02 in Fog , Snow Light Snow
9:53 AM 19.9 °F 6.7 °F 12.9 °F 74% 30.32 in 0.8 mi NW 13.8 mph 23.0 mph 0.01 in Snow Light Snow
10:22 AM 19.4 °F 6.0 °F 12.2 °F 74% 30.29 in 1.0 mi NW 13.8 mph - 0.01 in Snow Light Snow
10:43 AM 17.6 °F 3.2 °F 10.4 °F 73% 30.30 in 1.5 mi NW 15.0 mph - 0.01 in Snow Light Snow
10:53 AM 18.0 °F 5.4 °F 10.9 °F 74% 30.34 in 1.8 mi NNW 11.5 mph - 0.01 in Snow Light Snow
11:07 AM 19.4 °F 7.9 °F 10.4 °F 68% 30.30 in 3.0 mi NW 10.4 mph - 0.00 in Snow Light Snow
11:40 AM 17.6 °F 4.3 °F 10.4 °F 73% 30.29 in 1.5 mi NNW 12.7 mph - 0.00 in Snow Light Snow
11:53 AM 18.0 °F 5.4 °F 10.9 °F 74% 30.34 in 1.5 mi NW 11.5 mph - 0.00 in Snow Light Snow
12:19 PM 17.6 °F 5.0 °F 8.6 °F 68% 30.29 in 3.0 mi NW 11.5 mph - 0.00 in Snow Light Snow
12:53 PM 17.1 °F 3.0 °F 7.0 °F 65% 30.33 in 10.0 mi NW 13.8 mph - 0.00 in   Mostly Cloudy
1:53 PM 16.0 °F 0.6 °F 7.0 °F 68% 30.34 in 8.0 mi WNW 16.1 mph - 0.00 in Snow Light Snow
2:53 PM 16.0 °F 0.1 °F 7.0 °F 68% 30.35 in 7.0 mi NW 17.3 mph 21.9 mph 0.00 in Snow Light Snow
3:11 PM 15.8 °F 0.3 °F 6.8 °F 68% 30.31 in 9.0 mi NW 16.1 mph - 0.00 in Snow Light Snow
3:53 PM 16.0 °F 1.1 °F 6.1 °F 65% 30.37 in 9.0 mi NW 15.0 mph - 0.00 in Snow Light Snow
4:53 PM 14.0 °F 2.0 °F 5.0 °F 67% 30.39 in 3.0 mi NW 9.2 mph - 0.00 in Snow Light Snow
5:21 PM 12.2 °F 0.7 °F 5.0 °F 73% 30.36 in 3.0 mi NNW 8.1 mph - 0.00 in Snow Light Snow
5:53 PM 12.9 °F -0.2 °F 6.1 °F 74% 30.42 in 3.0 mi NW 10.4 mph - 0.00 in Snow Light Snow
6:08 PM 12.2 °F -1.8 °F 6.8 °F 79% 30.38 in 6.0 mi NW 11.5 mph - 0.00 in Snow Light Snow
6:53 PM 12.0 °F 0.5 °F 5.0 °F 73% 30.45 in 8.0 mi NW 8.1 mph - 0.00 in Snow Light Snow
7:53 PM 12.0 °F 1.5 °F 6.1 °F 77% 30.46 in 6.0 mi WNW 6.9 mph - 0.00 in Snow Light Snow
8:26 PM 12.2 °F 1.7 °F 6.8 °F 79% 30.41 in 2.5 mi WNW 6.9 mph - 0.00 in Snow Light Snow
8:53 PM 12.0 °F 1.5 °F 7.0 °F 80% 30.46 in 3.0 mi WNW 6.9 mph - 0.00 in Snow Light Snow
9:20 PM 12.2 °F 2.9 °F 6.8 °F 79% 30.41 in 2.5 mi West 5.8 mph - 0.00 in Snow Light Snow
9:53 PM 12.0 °F 2.7 °F 7.0 °F 80% 30.47 in 2.5 mi WNW 5.8 mph - 0.00 in Snow Light Snow
10:07 PM 12.2 °F 2.9 °F 6.8 °F 79% 30.42 in 1.5 mi West 5.8 mph - 0.00 in Snow Light Snow
10:22 PM 12.2 °F 4.3 °F 6.8 °F 79% 30.42 in 2.0 mi WNW 4.6 mph - 0.00 in Snow Light Snow
10:53 PM 12.9 °F 5.2 °F 8.1 °F 81% 30.47 in 2.0 mi West 4.6 mph - 0.00 in Snow Light Snow
11:53 PM 12.9 °F 3.8 °F 7.0 °F 77% 30.47 in 2.5 mi West 5.8 mph - 0.00 in Snow Light Snow